Weather in Krasino

Russia / Pskov Oblast     57°33′14″N   28°16′34″E
temp.,
°C
wind,
m/s
gust,
m/s
humid.,
%
clouds,
%
prec.,
mm/h
press.,
hPa
HPBL,
m
12 april, mon
mon1200:00+6se399396 0.0 1025174
03:00+6sse31191100 0.0 1025202
06:00+7sse51483100 0.0 1024281
09:00+9sse51472100 0.0 1025492
12:00+15s7125063 0.0 10241149
15:00+17sse711428 0.0 10221760
18:00+16sse59455 0.0 10201288
21:00+11sse412665 0.0 1020250
13 april, tue
tue1300:00+9sse413688 0.0 1020305
03:00+7s36795 0.0 1020123
06:00+7sse388084 0.0 1019221
09:00+10s467087 0.0 1019333
12:00+13sw235851 0.0 1019734
15:00+12wnw457365 0.0 1019304
18:00+8nnw688290 0.0 1020469
21:00+5nnw51088100 0.0 1020449
14 april, wed
wed1400:00+3nnw5989100 0.0 1020407
03:00+3nnw51191100 0.0 1019504
06:00+2nnw61192100 0.0 1019534
09:00+2n41094100 0.1 1020509
12:00+2n4896100 0.1 1021395
15:00+3nne4893100 0.2 1021549
18:00+3ne3691100 0.1 1021466
21:00+3ene268887 0.1 1022341
15 april, thu
thu1500:00+3nne3788100 0.0 1022318
03:00+3nne41082100 0.1 1022446
06:00+3nne41277100 0.0 1022504
09:00+5nne51271100 0.0 1023640
12:00+7nne6115999 0.0 1023773
15:00+9ne795174 0.0 10231094
18:00+8ne61063100 0.1 10231046
21:00+6nne61261100 0.1 1024770
16 april, fri
fri1600:00+5ne61370100 0.0 1024703
03:00+5ne61377100 0.1 1024607
06:00+4ne51477100 0.1 1024590
09:00+5ne61476100 0.1 1025550
12:00+7ne61269100 0.0 1026692
15:00+11ene7954100 0.0 10261129
18:00+11ne6114968 0.0 10261154
21:00+8ne5125360 0.0 1028473